Wind_Speed
53 53 53 53 54 56 56 56 56 55 55 54 53 52 51 50 49 49 47 47 46 45 45 44 43 42 42 40 40 40 40 40 40 39 38 37 37 37
54 54 54 54 54 55 56 56 56 56 57 55 55 54 53 52 52 51 49 48 48 47 46 46 45 44 43 42 42 41 41 40 40 40 40 40 39 38
54 55 55 55 55 56 56 57 57 58 58 56 56 56 56 55 54 53 52 50 50 48 47 47 47 46 45 44 44 44 43 42 42 41 42 42 42 42
54 55 55 56 56 56 57 58 58 59 59 58 57 57 57 56 54 54 53 51 50 49 49 48 48 47 47 46 45 45 45 44 44 44 43 44 44 44
55 55 55 56 56 57 57 57 58 58 59 59 57 56 56 55 54 54 54 52 51 51 50 50 50 49 49 48 47 47 46 46 46 46 46 46 46 46
55 55 55 54 55 56 57 57 58 59 59 59 58 58 57 55 55 54 54 53 53 53 53 53 51 50 50 49 49 48 48 48 48 47 47 47 48 47
54 54 54 54 55 55 56 56 57 59 59 59 58 58 58 56 55 54 54 54 54 54 54 54 55 54 53 52 51 50 50 49 49 49 48 48 49 49
54 53 53 54 55 55 55 56 57 59 59 59 59 58 58 57 56 55 56 56 55 54 54 54 56 56 55 54 53 52 52 51 51 50 50 50 50 50
53 54 53 52 53 55 55 56 56 57 59 59 58 58 58 58 57 56 56 56 55 55 55 55 55 56 56 55 54 53 53 53 53 52 52 52 52 52
54 54 54 52 52 53 53 55 55 55 56 58 58 58 58 58 58 56 56 57 56 55 55 55 55 56 56 55 54 54 54 54 55 54 54 54 54 54
55 56 56 55 54 53 54 55 55 55 56 57 58 59 59 59 59 59 58 57 58 58 57 58 57 57 57 57 56 55 55 56 56 56 57 56 56 56
56 56 56 57 56 55 55 55 55 55 56 57 58 58 59 60 60 60 59 59 59 58 57 58 58 59 59 58 57 57 57 58 59 59 59 58 57 57
55 56 56 57 57 56 55 55 55 55 56 58 58 58 59 59 60 60 59 60 60 59 58 58 58 58 59 58 58 58 58 59 60 61 60 59 59 58
55 56 56 56 56 56 56 56 56 56 56 57 59 59 60 61 61 61 61 60 61 60 58 57 57 58 58 58 58 59 59 59 60 60 60 60 59 59
53 54 53 55 56 56 57 57 58 58 58 59 59 60 60 61 62 62 62 62 61 60 59 59 58 58 58 58 58 59 59 59 58 59 59 58 58 58
52 52 53 54 55 55 56 56 57 58 58 58 58 59 61 61 61 61 61 61 61 60 61 61 60 60 60 59 59 60 60 59 58 59 59 58 58 57
49 50 51 52 53 54 54 54 55 56 57 57 56 56 58 59 59 60 60 60 60 60 60 60 60 60 61 61 60 59 58 58 57 56 56 57 58 58
47 47 47 48 50 52 53 54 54 54 54 55 54 54 55 56 58 59 60 60 59 59 58 59 59 59 59 59 59 57 57 56 55 55 55 56 56 57
44 44 45 46 47 49 50 51 52 52 52 53 53 53 54 55 55 56 58 58 57 57 57 57 57 57 58 57 56 57 56 56 55 54 53 54 54 54
40 41 41 43 44 45 46 47 49 49 49 49 49 49 50 51 52 53 54 55 55 56 56 55 55 56 57 57 56 55 56 55 55 54 53 52 52 52
38 39 39 40 40 41 42 43 45 46 46 46 47 47 48 48 49 50 50 51 52 52 53 53 54 55 55 56 55 53 53 53 53 53 52 52 51 51
35 36 37 38 39 40 40 42 43 44 44 44 44 45 45 46 46 47 48 48 49 50 50 51 52 52 53 52 52 51 50 50 51 52 51 51 50 50
33 34 35 35 36 37 38 38 40 41 41 42 42 43 43 43 44 45 47 47 47 47 47 48 48 49 49 49 49 48 49 49 49 50 50 49 49 49
Wind_Direction
253 252 251 249 248 246 244 244 244 244 245 245 245 245 245 245 247 248 249 250 252 252 253 254 255 257 258 258 259 260 260 260 261 261 261 261 262 265
252 251 250 249 248 246 245 244 244 244 244 244 244 244 245 245 246 247 250 251 252 252 252 253 255 256 257 258 259 260 261 261 261 261 260 260 261 262
252 251 250 249 248 247 246 245 245 245 244 243 244 243 244 245 246 248 250 250 250 251 252 253 254 256 256 258 259 260 261 261 261 261 261 261 261 261
251 251 250 249 248 247 247 246 246 245 244 244 244 244 245 245 245 247 248 249 249 250 252 253 254 254 256 257 258 259 260 261 262 263 263 262 262 262
251 251 250 249 248 248 248 247 246 246 244 244 244 244 244 244 244 245 247 248 249 249 251 252 253 253 254 255 257 259 260 261 262 263 263 263 262 262
250 250 249 249 248 247 247 246 246 245 244 244 244 244 243 243 243 245 247 248 249 249 251 251 252 253 254 255 257 258 259 261 262 263 263 262 262 262
250 248 247 248 248 247 247 246 246 245 244 243 243 244 244 244 245 246 248 248 248 250 251 251 252 253 254 255 257 259 260 261 261 262 263 264 264 263
249 248 248 249 248 248 248 248 247 246 244 243 243 243 244 244 245 246 248 249 249 249 251 251 252 253 255 256 257 258 260 261 261 262 263 264 264 264
249 249 249 249 250 249 248 248 247 245 243 243 243 242 243 244 246 246 247 248 249 250 251 251 251 252 253 255 256 258 259 260 261 262 263 264 265 265
249 248 249 249 249 247 248 248 247 245 245 244 244 243 243 244 245 247 248 249 249 251 252 252 251 253 253 254 256 258 259 260 261 262 262 263 264 264
250 250 249 250 248 248 248 247 246 246 246 246 245 245 245 246 247 248 250 251 251 251 253 253 252 253 254 255 257 259 260 260 261 262 263 264 264 264
251 251 250 249 249 249 248 247 247 248 247 246 246 246 246 247 248 250 251 252 253 253 254 255 254 254 255 256 258 259 260 261 261 263 264 264 264 263
251 251 251 250 249 248 248 248 249 248 247 247 247 248 248 248 249 250 251 253 254 254 255 256 256 256 256 257 258 259 260 261 262 263 263 263 263 263
252 251 250 249 248 247 247 247 248 248 248 247 247 247 248 248 249 251 252 253 254 255 255 257 257 257 257 257 258 259 260 260 262 262 262 263 263 263
252 251 249 247 246 246 246 247 247 248 248 248 249 249 248 248 249 251 252 252 254 255 255 256 257 257 258 258 259 259 259 260 261 262 262 262 263 263
251 250 248 246 245 246 246 247 247 247 247 249 250 249 248 248 249 251 251 252 252 253 254 255 256 256 257 258 259 260 260 260 262 263 263 263 263 263
251 251 250 248 247 247 247 247 247 247 248 249 249 249 249 249 249 250 251 252 253 253 253 254 254 255 256 258 259 260 261 261 262 263 263 262 262 264
250 249 249 249 248 248 248 248 247 247 247 248 248 249 248 248 249 250 251 252 252 252 253 253 254 254 255 257 258 259 260 261 263 264 264 263 263 264
250 249 249 250 249 249 249 248 247 247 248 248 248 249 249 248 249 249 250 251 251 252 253 254 254 254 255 256 257 259 260 261 262 263 265 264 265 265
250 250 250 250 249 248 249 247 246 245 245 246 247 247 248 248 248 249 250 251 252 252 253 254 254 254 255 256 257 258 260 261 262 263 264 265 266 267
249 249 249 250 249 248 247 246 245 245 246 246 247 247 247 248 249 249 250 250 251 252 253 254 254 254 255 256 257 259 260 262 263 263 264 264 266 268
248 248 248 248 248 247 245 244 244 244 245 245 246 246 247 248 249 249 249 249 251 252 253 253 254 254 255 257 258 259 260 262 263 263 263 264 266 267
248 248 247 247 247 245 243 242 242 242 243 245 245 246 246 247 248 249 249 249 249 251 252 252 253 254 255 256 257 258 260 261 262 263 263 264 266 267
Height
5645 5648 5651 5654 5658 5663 5667 5673 5678 5684 5689 5693 5697 5702 5706 5710 5713 5716 5719 5723 5725 5728 5730 5732 5734 5735 5737 5738 5739 5741 5742 5743 5744 5746 5747 5747 5748 5749
5631 5634 5637 5640 5644 5648 5653 5658 5663 5669 5675 5681 5684 5688 5692 5696 5700 5704 5707 5710 5713 5716 5718 5720 5722 5724 5726 5727 5729 5730 5731 5732 5733 5734 5736 5737 5738 5739
5616 5619 5623 5626 5630 5634 5639 5644 5648 5654 5660 5667 5670 5674 5678 5682 5686 5690 5693 5697 5700 5703 5706 5708 5710 5712 5714 5716 5717 5719 5720 5721 5722 5723 5724 5725 5726 5728
5602 5605 5608 5612 5615 5620 5624 5629 5634 5639 5644 5651 5656 5660 5664 5668 5673 5676 5680 5683 5687 5690 5693 5696 5698 5700 5702 5703 5705 5707 5708 5709 5711 5712 5713 5714 5715 5716
5588 5591 5594 5597 5601 5605 5610 5614 5619 5624 5629 5634 5640 5645 5650 5654 5658 5662 5666 5670 5674 5677 5680 5683 5685 5687 5689 5691 5693 5695 5696 5698 5699 5700 5700 5701 5702 5704
5573 5576 5580 5583 5587 5591 5595 5600 5604 5609 5614 5619 5625 5630 5635 5640 5643 5648 5652 5656 5660 5663 5666 5669 5671 5673 5676 5678 5680 5682 5683 5684 5686 5687 5688 5689 5690 5691
5559 5562 5566 5570 5573 5577 5581 5585 5589 5593 5599 5604 5609 5615 5620 5625 5629 5633 5637 5641 5645 5649 5651 5654 5657 5659 5661 5664 5666 5668 5670 5671 5672 5674 5675 5675 5676 5678
5545 5549 5552 5556 5559 5562 5566 5570 5574 5579 5584 5589 5595 5600 5605 5610 5614 5618 5622 5626 5631 5635 5637 5639 5642 5644 5647 5650 5652 5654 5655 5657 5659 5660 5661 5662 5663 5664
5531 5534 5537 5541 5544 5548 5552 5555 5559 5563 5568 5574 5579 5585 5590 5596 5599 5604 5607 5611 5616 5619 5621 5624 5626 5629 5632 5635 5637 5639 5641 5642 5644 5646 5647 5648 5649 5650
5516 5519 5522 5526 5530 5533 5537 5541 5545 5549 5554 5559 5565 5571 5575 5579 5583 5588 5591 5595 5599 5603 5605 5608 5611 5614 5617 5620 5622 5624 5625 5627 5629 5630 5632 5633 5634 5635
5501 5504 5508 5512 5516 5519 5522 5527 5531 5536 5540 5545 5550 5555 5559 5564 5568 5571 5575 5579 5583 5587 5589 5592 5595 5597 5600 5604 5606 5608 5610 5611 5613 5615 5616 5617 5618 5619
5486 5489 5493 5496 5500 5502 5506 5511 5516 5521 5525 5530 5535 5539 5544 5548 5552 5555 5560 5563 5567 5570 5574 5576 5579 5581 5584 5588 5590 5591 5593 5595 5597 5598 5600 5601 5602 5603
5470 5474 5477 5481 5484 5487 5491 5496 5501 5505 5509 5514 5519 5523 5528 5532 5536 5540 5543 5547 5550 5555 5558 5560 5562 5565 5567 5571 5574 5575 5577 5579 5580 5582 5583 5584 5585 5586
5454 5457 5461 5464 5468 5472 5476 5480 5485 5488 5493 5497 5502 5507 5512 5517 5521 5524 5527 5531 5534 5538 5541 5544 5546 5549 5552 5554 5558 5560 5561 5562 5563 5565 5566 5567 5568 5569
5438 5441 5444 5447 5451 5455 5460 5464 5468 5472 5476 5481 5487 5492 5497 5501 5504 5508 5511 5515 5518 5521 5525 5527 5530 5532 5535 5538 5541 5543 5544 5546 5547 5548 5549 5550 5552 5553
5422 5425 5428 5431 5434 5439 5443 5447 5451 5456 5460 5465 5470 5475 5480 5484 5488 5491 5495 5498 5501 5505 5508 5511 5513 5516 5519 5521 5524 5526 5528 5530 5532 5532 5533 5534 5535 5536
5407 5410 5412 5416 5419 5423 5427 5431 5435 5440 5444 5449 5453 5458 5463 5467 5471 5475 5478 5481 5484 5488 5492 5495 5497 5499 5502 5504 5507 5509 5511 5513 5515 5516 5516 5518 5519 5521
5393 5395 5399 5402 5405 5409 5412 5416 5420 5424 5429 5434 5438 5443 5447 5451 5455 5459 5462 5465 5468 5472 5475 5479 5481 5483 5486 5488 5490 5493 5495 5497 5498 5499 5500 5502 5504 5505
5380 5383 5386 5389 5392 5395 5399 5402 5407 5411 5415 5420 5424 5428 5432 5436 5439 5443 5446 5450 5453 5456 5459 5462 5465 5467 5470 5473 5476 5477 5479 5481 5482 5484 5485 5487 5489 5490
5367 5371 5374 5377 5380 5383 5386 5390 5394 5399 5403 5407 5410 5414 5418 5422 5425 5428 5431 5434 5438 5441 5444 5447 5450 5452 5455 5458 5461 5463 5464 5465 5467 5469 5471 5472 5473 5474
5356 5360 5363 5366 5368 5372 5375 5378 5382 5387 5391 5395 5398 5402 5405 5409 5412 5414 5417 5420 5423 5426 5430 5433 5435 5437 5439 5442 5445 5448 5450 5451 5452 5454 5456 5457 5458 5459
5346 5349 5352 5355 5358 5361 5364 5367 5371 5375 5379 5383 5386 5390 5393 5396 5399 5401 5404 5407 5410 5413 5416 5419 5421 5423 5425 5428 5431 5433 5435 5436 5437 5438 5440 5442 5443 5445
5337 5339 5342 5345 5347 5350 5354 5357 5361 5365 5368 5372 5375 5379 5382 5384 5386 5388 5391 5394 5397 5400 5402 5405 5407 5409 5411 5414 5416 5419 5421 5422 5423 5425 5426 5427 5429 5430